Showing default

UND ROADS 2, 64549

Orbit data source: Space-Track

UND ROADS 2, 64549 is an American payload satellite in SSO that was launched on Mon, 23 Jun 2025 UTC via an FALCON 9 launch vehicle from the Air Force Western Test Range (AFWTR). Payload-class satellites include a variety of spacecraft equipped with specific instruments for various scientific and technological missions. These include communications satellites like Starlink; space stations such as the ISS; scientific satellites like the Hubble; Earth observation satellites from companies like Planet Labs, Umbra, and HawkEye 360; GPS; miniature CubeSats for education and research; and military/defense satellites.

Loading next visibility...
Identifier
64549, 2025-135X
Orbit
SSO
Country
Flag of USUS
Related business
Manufacturer
UND
Mission
Operational Amateur Technology
Bus & Motor
CUBESAT 3U, Unknown motor
Mass
5.4 kg wet, 5.4 kg dry
Launch date (UTC)
2025-06-23 (10 months ago)
Launch vehicle
FALCON 9
Launch site
Air Force Western Test Range (AFWTR)
Object type
Payload
Rocket body
Debris
Shape & HBR
Box, 0.2 m
Radar Cross Section
0.035 m², Small (<0.1 m²)

Expand to show TLE details & history
Last TLE update: 8 hours ago

TLE from 8 hours ago
0 UND ROADS 2
1 64549U 25135X   26120.04220034  .00007435  00000-0  31675-3 0  9994
2 64549  97.4727 236.4133 0000168 148.2450 211.8797 15.23253791 47584
Epoch: 2026-04-30T01:00Z
TLE epoch observation values (Epoch: 2026-04-30T01:00:46.109Z)
Latitude
-0°
Longitude
3.22669°
Altitude
499.225 km
Speed
7.615 km/s
True Right ascension
15h 45m 39s
True Declination
0° 00' 00"
Sunlit
Object was in full shadow at epoch
Visualization orbit readout
Latitude
Unknown
Longitude
Unknown
Altitude
Unknown
Speed
Unknown
Apparent Right ascension
Unknown
Apparent Declination
Unknown
Sunlit
N/A
Visualization observer readout
Local Sidereal Time
16:39:36
Azimuth
Unknown
Elevation
Unknown
Doppler factor
Unknown
Orbital elements
Apogee altitude
493.114 km
Perigee altitude
492.883 km
Semi-major axis
6,871.135 km
Eccentricity
0.00002
Inclination
97.4727°
RAAN
236.4133°
Arg. of periapsis
148.245°
True anomaly
211.87868°
Mean anomaly
211.8797°
Eccentric anomaly
211.87919°
Mean motion
3.81066 °/min
Orbital period
94.47 mins
BSTAR
0.00031675
Loading maneuver chart data...
Computing Atmospheric mass density...
Loading historical data...
Loading historical data...
Loading historical data...
Loading historical data...
Loading historical data...
Loading historical data...
Loading historical data...

Documentation

Showing up to 5 results
|